Reflectivity
-20 -20 -20 -20 -20 -20 -20 -20 -20 -20 -20 -20 -20 -20 -20 -20 -20 -20 -20 -20 -20 -20 -20 -20 -20 -20 -20 -20 -20 -20 -20 -20 -20 -20 -20 -20 -20 -20 -20 -13 -3 -20 -20
-20 -20 -20 -20 -20 -20 -20 -20 -20 -20 -20 -20 -20 -20 -20 -20 -20 -20 -20 -20 -20 -20 -20 -20 -20 -20 -20 -20 -20 -20 -20 -20 -20 -20 -20 -20 -20 -20 -20 -20 -19 -2 -20
-20 -20 -20 -20 -20 -20 -20 -20 -20 -20 -20 -20 -20 -20 -20 -20 -20 -20 -20 -20 -20 -20 -20 -20 -20 -20 -20 -20 -20 -20 -20 -20 -20 -20 -20 -19 -20 -20 -20 -20 -20 -20 -20
-20 -20 -20 -20 -20 -20 -20 -20 -20 -20 -20 -20 -20 -20 -20 -20 -20 -20 -20 -20 -20 -20 -20 -20 -20 -20 -20 -20 -20 -20 -20 -20 -20 -20 -3 -12 -20 -20 -20 -20 -20 -20 -20
-20 -20 -20 -20 -20 -20 -20 -20 -20 -20 -20 -20 -20 -20 -20 -20 -20 -20 -20 -20 -19 -20 -20 -20 -20 -20 -20 -20 -20 -20 -20 -20 -20 -20 -20 -19 -20 -20 -20 -20 -20 -20 -20
-20 -20 -20 -20 -20 -20 -20 -20 -20 -20 -20 -20 -20 -20 -20 -20 -20 -20 -20 -20 -20 -20 -20 -20 2 -20 -20 -20 -20 -20 -20 -20 -20 -20 -19 -20 -20 -20 -20 -20 -20 -20 -20
-20 -20 -20 -20 -20 -20 -20 -20 -20 -20 -20 -20 -20 -20 -20 -20 -20 -20 -20 -20 -20 -20 -20 -20 -18 -20 -20 -20 -20 -20 -20 -20 -20 -20 -20 -20 -20 -20 -20 -20 -20 -20 -20
-20 -20 -11 10 -5 -20 -20 -20 -20 -20 -20 -20 -20 -20 -20 -20 -20 -20 -20 -20 -20 -20 -20 -20 -20 -20 -20 -20 -20 -20 -20 -20 -20 -20 -20 -20 -20 -20 -20 -20 -20 -20 -20
-20 -20 -1 -4 -15 -20 -20 -20 -20 -20 -20 -20 -20 -20 -20 -20 -20 -20 -20 -20 -20 -20 -20 -20 -20 -20 -20 -20 -20 -20 -20 -20 -20 -20 -20 10 13 -20 -20 -20 -20 -20 -20
-9 -16 -20 -20 -20 -20 -20 -20 -20 8 7 -20 3 -1 1 -20 -3 1 -18 -20 -20 -20 -20 -20 -20 -20 -20 -20 -20 -20 -19 -20 -20 -20 -20 -20 2 -20 -20 -20 -20 -20 -20
-20 -16 -13 -14 -4 -20 -20 -20 -20 -20 -20 -20 -20 -20 -20 5 7 12 8 11 11 10 8 -12 1 -15 -20 -20 -20 -20 -14 -20 -20 -20 -20 -11 -17 -20 -20 -20 -20 -20 -20
-20 -20 -20 -11 -16 -20 -20 -20 -20 -20 -20 -20 -20 -10 -20 -20 11 7 13 14 11 12 1 -9 -12 -10 -20 -20 -18 -20 -20 -20 -20 -11 -18 -20 16 -7 3 -20 -20 -20 -20
-20 -20 -20 -20 -19 -19 -20 -20 -20 -20 -20 -20 -5 -1 -0 5 6 13 12 -2 -7 0 -6 -20 -20 -17 -15 13 13 3 -20 -20 -15 -2 6 -13 11 -20 -15 -20 -20 -20 -14
-20 -20 -20 -20 -20 -20 -20 -20 -20 -20 -20 -20 -20 -20 5 -20 -5 16 8 10 7 -6 8 1 -20 -20 -20 5 -20 -14 -16 -20 -20 -15 14 0 -20 -20 -20 -20 -20 -20 -20
-20 -20 -20 -20 -20 -20 -20 -20 -20 -20 -20 -20 -20 -20 -17 4 -20 -20 0 -4 16 7 -2 1 -11 0 -17 -20 -20 -20 -20 -20 -20 -20 -20 -17 -20 -20 -20 -20 -20 -20 6
-20 -20 -20 -20 -20 -20 -20 -20 -20 -20 -20 -20 -20 -20 -20 -20 -20 -20 -20 -17 -10 1 12 6 -13 -6 -3 -20 -20 -20 -20 -20 -20 -20 -20 -20 -20 -20 -20 -20 -20 -20 8
-20 -20 -20 -20 -20 -20 -20 -20 -20 -20 -20 -20 -20 -20 -20 -20 -20 -20 -20 -20 -20 -20 -20 -20 -20 -20 -20 -20 -20 -20 -20 -20 -20 -20 -20 -20 -20 -20 -20 -20 -18 -0 9
-20 -20 -20 -20 -20 -20 -20 -20 -20 -20 -20 -20 -20 -20 -20 -20 -20 -20 -20 -20 -20 -20 -20 -20 -20 -20 -20 -20 -20 -20 -20 -20 -20 -20 -20 -20 -20 -20 -20 -20 -20 -20 3
-20 -20 -20 -20 -20 -20 -20 -20 -20 -20 -20 -20 -20 -20 -20 -20 -20 -20 -20 -20 -20 -20 -20 -20 -20 -20 -20 -20 -20 -20 -20 -20 -20 -20 -20 -20 -20 -20 -20 -20 9 -4 -7
-20 -20 -20 -20 -20 -20 -20 -20 -20 -20 -20 -20 -20 -20 -20 -20 -20 -20 -20 -20 -20 -20 -20 -20 -20 -20 -20 -20 -20 -20 -20 -20 -20 -20 -20 -20 -20 -20 -20 -20 -20 -10 8
-20 -20 -20 -20 -20 -20 -20 -20 -20 -20 -20 -20 -20 -20 -20 -20 -20 -20 -20 -20 -20 -20 -20 -20 -20 -20 -20 -20 -20 -20 -20 -20 -20 -20 -20 -20 -20 -20 -20 -20 -20 -20 -20
-20 -20 -20 -20 -20 -20 -20 -20 -20 -20 -20 -20 -20 -20 -20 -20 -20 -20 -20 -20 -20 -20 -20 -20 -20 -20 -20 -20 -20 -20 -20 -20 -20 -20 -20 -20 -20 -20 -20 -20 -20 -20 -20
-20 -20 -20 -20 -20 -20 -20 -20 -20 -20 -20 -20 -20 -20 -20 -20 -20 -20 -20 -20 -20 -20 -20 -20 -20 -20 -20 -20 -20 -20 -20 -20 -20 -20 -20 -20 -20 -20 -20 -20 -20 -20 -20
-20 -20 -20 -20 -20 -20 -20 -20 -20 -20 -20 -20 -20 -20 -20 -20 -20 -20 -20 -20 -20 -20 -20 -20 -20 -20 -20 -20 -20 -20 -20 -20 -20 -20 -20 -20 -20 -20 -20 -20 -20 -20 -20
-20 -20 -20 -20 -20 -20 -20 -20 -20 -20 -20 -20 -20 -20 -20 -20 -20 -20 -20 -20 -20 -20 -20 -20 -20 -20 -20 -20 -20 -20 -20 -20 -20 -20 -20 -20 -20 -20 -20 -20 -20 -20 -20
-20 -20 -20 -20 -20 -20 -20 -20 -20 -20 -20 -20 -20 -20 -20 -20 -20 -20 -20 -20 -20 -20 -20 -20 -20 -20 -20 -20 -20 -20 -20 -20 -20 -20 -20 -20 -20 -20 -20 -20 -20 -20 -20
Wind_Speed
15 13 12 12 11 11 10 9 9 10 10 10 10 8 8 9 9 10 10 9 8 8 8 8 7 8 10 10 10 9 9 8 8 9 10 11 10 9 8 7 3 11 10
17 15 10 11 11 11 10 9 9 9 11 11 11 10 9 9 9 8 8 8 7 7 6 6 7 6 8 8 8 7 7 5 6 7 8 9 9 8 8 8 4 10 10
16 13 11 10 11 11 11 10 10 10 10 11 10 11 10 10 9 8 7 6 6 6 5 5 6 6 6 7 7 6 4 2 2 3 7 6 7 8 8 9 11 10 9
14 12 11 9 10 10 11 11 11 11 9 11 11 10 9 10 9 9 7 6 6 6 5 4 5 5 5 6 5 4 2 4 3 3 4 6 6 8 8 8 7 8 7
16 13 12 9 9 10 10 9 9 10 10 11 11 11 10 9 9 8 7 6 5 6 5 4 4 4 4 3 3 2 1 7 7 5 8 4 7 9 8 8 7 5 4
16 14 10 9 10 9 9 9 9 9 9 10 10 10 9 9 8 8 7 6 6 6 5 3 3 4 2 1 1 0 3 8 9 7 5 7 8 11 10 7 2 4 7
12 12 9 8 9 9 9 9 8 9 8 9 9 9 8 8 8 7 6 6 5 5 4 3 4 3 2 2 2 3 5 8 7 10 6 7 11 14 11 8 5 5 6
12 11 10 10 10 10 9 8 8 8 7 7 7 7 7 7 6 6 5 4 4 3 3 4 3 4 4 3 3 4 6 7 9 11 10 6 15 16 14 10 7 7 7
13 11 10 9 11 13 10 9 8 9 8 7 5 5 4 5 5 6 5 5 5 5 3 3 2 3 5 5 5 5 5 6 5 7 11 2 13 14 13 10 7 6 7
9 12 11 10 9 9 8 9 9 8 8 7 7 4 4 2 4 7 8 8 7 6 5 5 4 4 4 5 6 6 6 8 6 7 7 3 11 11 11 9 8 6 8
9 8 9 9 7 8 9 8 9 9 8 8 7 5 5 0 3 5 7 6 3 0 4 6 5 5 6 8 9 8 7 5 7 4 4 10 12 12 10 8 8 7 7
12 11 9 10 9 9 9 8 8 9 5 2 4 3 4 6 5 6 5 4 6 2 3 4 6 8 7 5 4 7 4 6 4 4 4 11 10 5 3 4 7 8 9
14 10 11 8 8 9 8 8 6 6 5 4 5 4 4 4 3 3 2 2 0 3 3 4 5 5 5 4 2 4 5 5 2 2 3 8 5 7 9 6 7 5 7
14 13 12 10 6 4 4 3 4 4 3 4 5 2 4 3 3 2 2 2 3 3 4 3 2 3 6 5 3 3 3 4 1 3 4 10 9 9 5 6 8 10 10
14 11 11 9 6 4 4 5 5 4 4 5 4 2 0 4 5 4 3 2 1 1 1 3 4 3 2 4 1 4 4 5 6 3 3 8 7 6 9 9 9 8 10
13 12 10 10 7 6 6 6 4 5 4 4 4 3 2 2 1 5 5 5 4 2 2 2 3 4 4 4 3 3 3 4 5 5 4 4 17 19 18 16 15 13 13
12 13 9 8 8 6 7 6 5 5 5 5 4 4 4 4 2 4 4 4 4 3 3 3 1 2 3 3 2 3 3 4 2 5 5 2 8 16 17 17 17 18 18
14 14 11 10 8 8 7 5 5 4 5 5 5 4 3 3 3 2 3 4 4 2 3 4 3 4 4 4 3 3 4 4 3 2 3 7 6 5 11 17 18 20 22
14 14 12 10 10 8 7 5 6 5 4 4 5 5 4 3 3 4 4 4 4 2 4 3 3 3 3 4 4 3 3 3 1 4 6 9 8 8 6 16 18 18 20
13 14 12 9 10 8 6 5 5 3 4 4 4 4 5 3 1 4 4 1 2 3 4 3 2 3 1 3 4 5 4 2 3 5 7 8 6 7 6 5 6 9 18
11 13 13 10 10 7 7 7 7 6 5 4 5 6 6 4 2 2 4 2 4 4 4 3 2 1 4 4 2 2 1 5 3 6 5 5 6 4 6 4 4 6 6
11 10 10 10 9 6 5 5 6 7 5 5 5 5 5 6 2 3 3 3 3 4 4 4 3 3 3 4 2 2 1 2 2 4 5 5 5 4 4 4 7 9 7
13 13 10 10 10 7 6 4 4 6 5 4 5 3 4 5 5 5 4 4 3 4 4 4 4 6 2 2 4 2 3 3 1 2 6 5 7 5 9 12 12 12 11
14 15 13 13 12 9 7 5 7 6 7 6 6 6 4 6 6 5 5 4 5 4 4 3 4 3 4 4 2 3 5 4 3 1 3 6 5 7 9 8 10 11 11
15 11 9 8 11 10 7 5 5 5 5 6 7 10 6 5 6 6 5 6 6 4 5 6 5 6 5 4 5 4 5 5 6 3 3 5 4 5 8 8 7 7 8
13 9 8 7 8 9 7 5 6 8 6 7 8 7 6 5 5 6 6 6 6 5 5 4 5 7 5 6 5 6 5 3 4 3 2 3 3 3 7 6 5 4 4
Wind_Direction
115 118 115 116 108 98 94 107 130 144 140 137 130 127 121 117 110 108 108 106 100 97 90 87 73 66 68 65 62 61 65 66 73 81 87 94 94 88 69 39 338 101 103
121 118 121 117 112 108 104 103 116 136 139 140 140 136 130 127 123 120 118 116 116 111 103 96 91 78 75 73 66 60 62 77 93 97 101 101 101 91 71 24 234 108 106
110 118 130 116 117 118 111 109 116 127 138 138 141 138 137 135 135 134 134 127 131 128 122 113 107 99 86 79 70 63 56 23 94 133 172 146 112 104 87 67 87 99 98
123 137 129 122 122 120 121 126 129 132 137 135 141 139 139 141 143 146 147 143 154 143 143 137 119 108 95 88 85 78 55 284 222 207 204 239 137 127 113 105 104 109 114
135 117 112 125 122 122 123 120 121 124 135 136 138 138 143 148 151 149 150 155 154 157 159 158 140 126 110 102 102 96 304 285 304 283 244 179 141 137 135 128 131 140 166
90 100 112 128 127 127 126 126 127 126 135 132 130 138 146 150 153 151 154 164 167 168 166 173 137 132 134 155 150 250 283 294 319 283 251 127 109 146 151 162 229 148 143
102 104 124 124 125 124 126 126 126 133 134 128 129 135 143 148 151 154 162 167 174 177 180 172 146 148 150 238 266 283 293 305 301 294 272 157 129 152 154 160 180 174 164
118 115 134 113 98 100 105 114 122 120 126 120 126 133 142 148 153 162 170 181 186 210 211 220 193 192 194 213 264 284 293 305 314 305 311 123 148 157 154 164 187 197 192
124 130 143 131 106 86 83 96 104 100 97 94 100 127 131 161 169 178 183 197 209 217 225 247 247 264 217 202 240 260 273 285 297 298 304 65 144 146 152 161 181 203 215
139 145 144 132 145 128 110 93 96 99 98 96 102 112 170 161 194 200 196 205 208 216 221 230 247 265 270 255 248 249 271 282 255 266 284 129 145 149 157 168 184 210 226
157 150 143 142 123 124 136 132 127 129 135 136 136 154 184 221 184 146 65 83 67 238 215 222 226 234 249 251 245 236 238 250 251 237 254 159 159 154 170 173 190 213 234
164 157 157 145 148 164 150 162 151 145 150 126 70 109 69 60 52 68 71 107 123 153 204 221 230 229 231 249 194 224 230 246 264 258 260 169 171 184 170 199 219 217 230
161 164 156 156 161 189 133 169 171 163 141 112 72 77 100 83 26 58 59 17 291 201 235 201 212 224 218 224 229 192 233 249 283 308 160 128 78 49 37 11 330 297 261
160 153 148 157 165 167 121 181 83 82 95 123 86 147 157 129 116 75 45 10 7 3 355 352 17 3 341 330 2 285 261 283 165 12 100 101 87 75 61 30 11 350 346
158 148 157 142 145 146 145 79 79 120 77 101 115 7 258 148 148 154 161 148 210 5 319 319 331 296 269 281 351 329 315 346 345 355 43 108 126 115 58 38 24 5 347
156 151 146 155 143 150 101 104 98 77 107 91 71 32 18 358 87 166 176 183 193 165 342 315 36 336 340 343 327 295 11 330 320 335 10 8 71 70 61 45 28 19 4
156 154 152 137 146 131 127 133 135 148 128 109 99 79 29 31 19 337 53 50 46 57 270 299 339 291 264 277 300 4 347 291 339 39 24 319 92 76 78 63 46 39 31
161 156 161 152 149 143 150 135 128 148 115 119 120 102 71 75 8 325 77 57 357 37 25 19 21 7 347 359 350 346 351 356 18 351 31 64 60 68 75 73 65 55 44
165 152 161 152 158 154 144 131 122 132 128 122 125 118 108 70 17 56 58 59 296 72 57 11 7 53 336 8 324 319 258 252 255 69 65 78 61 49 51 84 71 60 51
164 152 155 155 158 147 152 123 135 137 117 124 108 105 126 97 70 117 79 88 335 52 66 13 8 12 30 27 323 306 305 27 47 93 60 71 77 78 56 40 106 74 62
154 156 160 166 156 160 157 167 156 160 145 118 103 125 118 104 73 58 120 145 73 69 59 24 332 236 60 10 279 310 268 114 82 95 95 77 66 88 99 64 46 72 64
147 152 155 163 161 185 179 181 168 152 145 128 119 119 109 114 99 86 91 71 50 99 66 32 23 329 91 46 357 265 135 74 76 105 97 94 58 34 46 113 67 66 42
159 154 161 167 165 199 203 188 130 116 101 121 126 139 130 117 104 83 54 88 50 70 69 41 11 16 53 105 42 21 354 91 269 129 104 77 51 30 49 60 56 49 42
166 153 169 176 171 188 221 182 159 166 163 164 163 128 126 118 108 94 92 65 61 55 69 75 16 33 351 35 81 68 74 56 14 346 61 66 43 74 64 53 44 39 32
158 160 169 178 175 174 200 151 160 185 196 160 135 133 142 130 131 122 116 105 92 75 53 53 28 19 20 42 32 359 30 67 42 13 319 16 14 34 71 64 53 41 29
141 155 156 184 186 176 176 167 176 224 173 149 139 152 153 147 136 124 110 101 103 89 70 57 57 43 47 31 60 39 46 30 54 9 4 340 3 60 81 69 57 49 52